TITAN 3C TRANSTAGE DEB, 19592

Orbit data source: Space-Track

TITAN 3C TRANSTAGE DEB, 19592 is space debris in HEO originally from a launch on Tue, 21 Dec 1965 UTC launched from the Air Force Eastern Test Range (AFETR). Debris objects in space refer to the collection of defunct objects orbiting the Earth. Examples of debris include non-operational satellites, rocket bodies, and fragments generated from explosions, collisions, or faulty payload assembly.

Loading next visibility...
Identifier
19592, 1965-108AA
Orbit
HEO
Last TLE update
21 hours ago
Origin
Manufacturer
Unknown
Mission
Spacecraft
Bus & Motor
Unknown
Mass
Unknown
Launch date (UTC)
1965-12-21 (60 years ago)
Launch vehicle
Unknown
Launch site
Air Force Eastern Test Range (AFETR)
Object type
Payload
Rocket body
Debris
Shape & HBR
Unknown
Radar Cross Section
Medium (>0.1 m² and <1 m²)

Expand to show TLE details & history

TLE from 21 hours ago
0 TITAN 3C TRANSTAGE DEB
1 19592U 65108AA  25181.49959733 -.00000276  00000-0 -12358-2 0  9990
2 19592  26.9560 352.5200 6710099 352.6043   6.4822  2.84018365335345
Epoch: 2025-06-30T11:59Z
TLE epoch observation values (Epoch: 2025-06-30T11:59:25.209Z)
Latitude
14.91049°
Longitude
-74.75455°
Altitude
1,354.131 km
Speed
9.175 km/s
True Right ascension
01h 35m 38s
True Declination
14° 49' 54"
Sunlit
Object was in daylight at epoch
Visualization orbit readout
Latitude
5.00118°
Longitude
63.56922°
Altitude
28,602.6 km
Speed
1.966 km/s
Apparent Right ascension
10h 30m 42s
Apparent Declination
-1° 30' 51"
Sunlit
Object is in daylight
Visualization observer readout
Local Sidereal Time
20:13:07
Azimuth
312.031° NW
Elevation
-40.513°
Doppler factor
1
Orbital elements
Apogee altitude
28,823 km
Perigee altitude
552.298 km
Semi-major axis
21,065.786 km
Eccentricity
0.67101
Inclination
26.956°
RAAN
352.52°
Arg. of periapsis
352.6043°
True anomaly
Unknown
Mean anomaly
6.4822°
Eccentric anomaly
Unknown
Mean motion
0.70987 °/min
Orbital period
507.14 mins
BSTAR
-0.0012358
Loading maneuver chart data...
Loading SW <> Apogee altitude chart data...

TITAN 3C TRANSTAGE DEB Visibility forecast

Observer location: undefined°, undefined°

Span
Click to sort rows by Start time (UTC) header in descending order
Start Az.
Max El. time (UTC)
Max El. Az.
Max El.
End time (UTC)
End Az.
17 mins2025-07-01 13:20:59.135Z154.761° SSE2025-07-01 13:25:59.135Z120.428° SE15.674°2025-07-01 13:37:59.135Z89.094° E
366 mins2025-07-01 22:13:59.135Z274.283° WNW2025-07-01 23:28:59.135Z237.838° WSW35.048°2025-07-02 04:19:59.135Z227.203° WSW
|